JH0KSP-13 Weather Reports


time (UTC)temp
F
wind
direction
speed
knots
gust
knots
rain 1hr
in
rain 24hr
in
rain mn
in
humidity
%
barometer
mb
20260508124655 57 262 8.7 17.4 0.00 0.00 0.06 65 1009.0
20260508123010 57 250 12.2 19.1 0.00 0.00 0.06 69 1009.1
20260508122656 57 229 10.4 16.5 0.00 0.00 0.06 71 1009.1
20260508122009 57 280 11.3 17.4 0.00 0.00 0.06 71 1009.0
20260508121008 57 301 9.6 20.0 0.00 0.00 0.06 72 1009.2
20260508120657 59 253 11.3 20.0 0.00 0.00 0.06 73 1009.2
20260508114657 59 312 5.2 14.8 0.00 0.00 0.06 73 1008.6
20260508112655 59 231 10.4 15.6 0.00 0.00 0.06 72 1008.2
20260508112009 59 210 8.7 15.6 0.00 0.00 0.06 74 1007.9
20260508110656 61 231 7.0 12.2 0.00 0.00 0.06 74 1007.5
20260508104657 61 239 7.8 16.5 0.00 0.00 0.06 73 1007.2
20260508103009 61 243 7.0 20.0 0.00 0.00 0.06 79 1006.7
20260508102656 61 278 6.1 20.0 0.00 0.00 0.06 78 1006.7
20260508102009 61 249 7.8 20.9 0.00 0.00 0.06 78 1006.4
20260508100657 61 257 13.9 20.9 0.00 0.00 0.06 84 1006.2
20260508095009 63 316 7.8 22.6 0.00 0.00 0.05 86 1005.9
20260508094655 64 298 7.8 22.6 0.00 0.00 0.04 78 1005.8
20260508092656 68 208 3.5 6.1 0.00 0.00 0.00 58 1005.1
20260508090657 68 180 2.6 6.1 0.00 0.00 0.00 53 1005.0
20260508084656 68 181 5.2 7.8 0.00 0.00 0.00 58 1005.2
20260508083008 70 239 6.1 8.7 0.00 0.00 0.00 57 1005.2
20260508082657 70 174 5.2 8.7 0.00 0.00 0.00 57 1005.1
20260508080656 70 174 8.7 13.9 0.00 0.00 0.00 54 1005.0
20260508075009 70 190 10.4 20.0 0.00 0.00 0.00 53 1005.2
20260508074655 70 159 7.0 17.4 0.00 0.00 0.00 53 1005.2
20260508073009 72 183 7.0 16.5 0.00 0.00 0.00 52 1005.1
20260508072656 72 165 10.4 16.5 0.00 0.00 0.00 51 1005.2
20260508072009 72 228 6.1 12.2 0.00 0.00 0.00 51 1004.9
20260508070657 72 236 7.8 14.8 0.00 0.00 0.00 49 1004.8
20260508064656 72 233 3.5 7.0 0.00 0.00 0.00 56 1005.3
20260508064009 72 194 2.6 5.2 0.00 0.00 0.00 55 1005.3
20260508062656 72 191 4.3 9.6 0.00 0.00 0.00 54 1005.3
20260508061009 72 203 4.3 9.6 0.00 0.00 0.00 53 1005.3
20260508060655 72 188 4.3 9.6 0.00 0.00 0.00 53 1005.3
20260508060009 72 273 3.5 7.8 0.00 0.00 0.00 54 1005.4
20260508055009 72 311 4.3 13.0 0.00 0.00 0.00 53 1005.4
20260508054656 72 208 8.7 13.0 0.00 0.00 0.00 52 1005.6
20260508053008 72 218 4.3 9.6 0.00 0.00 0.00 53 1005.7
20260508052657 72 278 6.1 7.8 0.00 0.00 0.00 53 1005.6
20260508052008 72 271 2.6 11.3 0.00 0.00 0.00 54 1005.6
20260508050656 72 225 6.1 12.2 0.00 0.00 0.00 54 1005.8
20260508045009 72 217 5.2 7.8 0.00 0.00 0.00 56 1006.3
20260508044655 72 243 2.6 7.8 0.00 0.00 0.00 57 1006.4
20260508044008 72 204 3.5 7.0 0.00 0.00 0.00 58 1006.5
20260508043009 72 246 2.6 9.6 0.00 0.00 0.00 59 1006.5
20260508042655 72 173 3.5 9.6 0.00 0.00 0.00 59 1006.5
20260508042009 70 181 2.6 7.8 0.00 0.00 0.00 61 1006.7
20260508041009 70 221 5.2 7.8 0.00 0.00 0.00 64 1006.8
20260508040656 70 245 4.3 8.7 0.00 0.00 0.00 66 1006.8
20260508040009 70 263 2.6 9.6 0.00 0.00 0.00 66 1006.8
20260508035009 70 267 5.2 11.3 0.00 0.00 0.00 65 1007.0
20260508034656 70 231 6.1 11.3 0.00 0.00 0.00 65 1007.1
20260508034008 70 240 5.2 11.3 0.00 0.00 0.00 67 1006.9
20260508033008 70 231 7.0 9.6 0.00 0.00 0.00 71 1006.9
20260508032656 70 203 6.1 8.7 0.00 0.00 0.00 72 1006.8
20260508032009 70 212 3.5 14.8 0.00 0.00 0.00 71 1007.0
20260508030655 70 200 7.8 13.0 0.00 0.00 0.00 67 1007.2
20260508030009 70 238 4.3 9.6 0.00 0.00 0.00 69 1007.1
20260508024657 72 224 9.6 16.5 0.00 0.00 0.00 59 1007.5
20260508023009 72 232 8.7 13.9 0.00 0.00 0.00 55 1007.4
20260508022656 72 197 4.3 16.5 0.00 0.00 0.00 55 1007.4
20260508022009 72 215 9.6 19.1 0.00 0.00 0.00 55 1007.4
20260508021008 73 203 9.6 14.8 0.00 0.00 0.00 54 1007.6
20260508020656 72 195 7.8 14.8 0.00 0.00 0.00 57 1007.8
20260508015008 72 193 7.8 15.6 0.00 0.00 0.00 60 1008.2
20260508014656 72 208 8.7 15.6 0.00 0.00 0.00 59 1008.2
20260508013009 70 187 5.2 8.7 0.00 0.00 0.00 71 1008.4
20260508012657 70 184 5.2 8.7 0.00 0.00 0.00 73 1008.5
20260508011009 70 194 2.6 7.0 0.00 0.00 0.00 74 1008.6
20260508010656 70 211 2.6 8.7 0.00 0.00 0.00 75 1008.6
20260508010009 70 170 5.2 10.4 0.00 0.00 0.00 75 1008.5
20260508005008 70 186 4.3 7.0 0.00 0.00 0.00 77 1008.8
20260508004656 70 166 3.5 6.1 0.00 0.00 0.00 79 1008.6
20260508003008 68 207 4.3 6.1 0.00 0.00 0.00 84 1008.5
20260508002656 68 195 3.5 4.3 0.00 0.00 0.00 86 1008.6
20260508000657 68 195 4.3 6.1 0.00 0.00 0.00 90 1009.0
20260508000010 66 239 2.6 5.2 0.00 0.00 0.00 94 1009.1
20260507234656 66 242 2.6 7.0 0.00 0.00 0.00 96 1009.4
20260507232657 64 294 0.9 3.5 0.00 0.00 0.00 99 1009.4
20260507230655 63 134 0.0 2.6 0.00 0.00 0.00 100 1009.4
20260507224655 63 104 0.9 3.5 0.00 0.00 0.00 100 1009.6
20260507224009 63 295 0.0 0.0 0.00 0.00 0.00 100 1009.8
20260507223009 63 295 0.0 1.7 0.00 0.00 0.00 100 1009.8
20260507222656 63 270 0.9 1.7 0.00 0.00 0.00 100 1009.9
20260507222009 63 229 0.0 0.0 0.00 0.00 0.00 100 1010.0
20260507221009 63 229 0.0 1.7 0.00 0.00 0.00 100 1010.0
20260507220656 63 229 0.0 1.7 0.00 0.00 0.00 100 1010.1
20260507215008 61 20 0.0 6.1 0.00 0.00 0.00 100 1009.7
20260507214656 61 10 2.6 6.1 0.00 0.00 0.00 100 1009.8
20260507214008 61 301 0.0 2.6 0.00 0.00 0.00 98 1010.0
20260507213009 61 245 1.7 5.2 0.00 0.00 0.00 98 1009.9
20260507212655 61 233 0.9 3.5 0.00 0.00 0.00 98 1009.9
20260507212008 61 173 1.7 3.5 0.00 0.00 0.00 98 1009.5
20260507211008 61 163 1.7 2.6 0.00 0.00 0.00 97 1009.5
20260507210655 61 156 2.6 2.6 0.00 0.00 0.00 97 1009.6
20260507210009 61 37 0.0 0.0 0.00 0.00 0.00 97 1009.5
20260507205008 61 37 0.0 0.0 0.00 0.00 0.00 97 1009.5
20260507204656 61 37 0.0 0.0 0.00 0.00 0.00 97 1009.6
20260507204009 61 37 0.0 0.0 0.00 0.00 0.00 97 1009.6
20260507203008 61 37 0.9 2.6 0.00 0.00 0.00 97 1009.5
20260507202657 61 167 0.0 0.0 0.00 0.00 0.00 97 1009.5
20260507202010 61 167 0.0 1.7 0.00 0.00 0.00 96 1009.5
20260507200657 61 82 0.0 4.3 0.00 0.00 0.00 96 1009.7
20260507200008 61 94 0.9 4.3 0.00 0.00 0.00 96 1009.5
20260507195008 61 55 1.7 6.1 0.00 0.00 0.00 96 1009.6
20260507194656 61 330 1.7 6.1 0.00 0.00 0.00 96 1009.6
20260507194009 61 239 2.6 4.3 0.00 0.00 0.00 96 1009.7
20260507192656 61 318 0.0 3.5 0.00 0.00 0.00 96 1009.8
20260507192008 61 332 1.7 3.5 0.00 0.00 0.00 95 1009.8
20260507191009 63 77 0.9 2.6 0.00 0.00 0.00 93 1009.9
20260507190657 63 146 0.0 2.6 0.00 0.00 0.00 92 1009.9
20260507190009 63 100 0.9 1.7 0.00 0.00 0.00 92 1009.8
20260507185008 63 304 0.0 5.2 0.00 0.00 0.00 91 1009.9
20260507184657 63 304 0.0 5.2 0.00 0.00 0.00 90 1009.9
20260507184008 63 345 2.6 5.2 0.00 0.00 0.00 91 1009.9
20260507183009 63 342 1.7 3.5 0.00 0.00 0.00 91 1010.1
20260507182657 63 285 1.7 2.6 0.00 0.00 0.00 91 1010.1
20260507182008 63 201 0.0 0.0 0.00 0.00 0.00 90 1010.0
20260507181009 63 201 0.0 2.6 0.00 0.00 0.00 89 1010.1
20260507180655 63 201 0.0 2.6 0.00 0.00 0.00 89 1010.1
20260507180009 63 245 0.0 4.3 0.00 0.00 0.00 89 1010.0
20260507175008 63 291 0.0 0.0 0.00 0.00 0.00 88 1010.1
20260507174655 63 291 0.0 0.0 0.00 0.00 0.00 88 1010.2
20260507174009 63 291 0.0 2.6 0.00 0.00 0.00 88 1010.1
20260507173008 63 340 2.6 6.1 0.00 0.00 0.00 89 1010.3
20260507172656 63 346 3.5 6.1 0.00 0.00 0.00 90 1010.4
20260507172009 63 319 2.6 6.1 0.00 0.00 0.00 91 1010.5
20260507171008 63 323 3.5 5.2 0.00 0.00 0.00 92 1010.5
20260507170656 63 273 2.6 4.3 0.00 0.00 0.00 91 1010.5
20260507170009 63 240 2.6 6.1 0.00 0.00 0.00 90 1010.5
20260507165008 63 256 1.7 3.5 0.00 0.00 0.00 89 1010.6
20260507164659 63 318 0.0 4.3 0.00 0.00 0.00 89 1010.6
20260507164009 63 232 1.7 4.3 0.00 0.00 0.00 88 1010.7
20260507163008 63 323 2.6 5.2 0.00 0.00 0.00 88 1010.8
20260507162657 63 302 2.6 4.3 0.00 0.00 0.00 88 1010.8
20260507162008 63 294 1.7 5.2 0.00 0.00 0.00 88 1011.0
20260507161008 63 315 5.2 7.0 0.00 0.00 0.00 89 1011.1
20260507160656 63 240 2.6 6.1 0.00 0.00 0.00 89 1011.1
20260507160009 63 218 2.6 4.3 0.00 0.00 0.00 89 1011.2
20260507155008 64 262 0.9 5.2 0.00 0.00 0.00 89 1011.2
20260507154656 63 353 2.6 5.2 0.00 0.00 0.00 89 1011.2
20260507154010 64 255 2.6 3.5 0.00 0.00 0.00 88 1011.2
20260507153008 64 309 0.0 4.3 0.00 0.00 0.00 89 1011.3
20260507152657 64 308 3.5 4.3 0.00 0.00 0.00 89 1011.4
20260507152009 64 242 2.6 3.5 0.00 0.00 0.00 89 1011.6
20260507151008 64 245 1.7 3.5 0.00 0.00 0.00 88 1011.7
20260507150657 64 245 1.7 3.5 0.00 0.00 0.00 88 1011.8
20260507150009 64 263 0.0 4.3 0.00 0.00 0.00 88 1011.8
20260507145008 64 253 2.6 3.5 0.00 0.00 0.00 89 1011.9
20260507144657 64 291 1.7 3.5 0.00 0.00 0.00 89 1011.8
20260507142656 64 236 1.7 3.5 0.00 0.00 0.00 88 1011.9
20260507140656 64 304 0.0 2.6 0.00 0.00 0.00 88 1011.9
20260507140008 64 305 0.0 4.3 0.00 0.00 0.00 87 1012.0
20260507134657 64 257 1.7 4.3 0.00 0.00 0.00 85 1012.1
20260507132657 64 260 0.9 5.2 0.00 0.00 0.00 84 1012.3
20260507132008 66 284 3.5 6.1 0.00 0.00 0.00 83 1012.3
20260507131009 66 221 3.5 5.2 0.00 0.00 0.00 83 1012.3
20260507130656 66 239 1.7 5.2 0.00 0.00 0.00 84 1012.4